Regional Weather Roundup
Issued by NWS Mobile, AL

Home | Current Version | Previous Version | Text Only | Print | Product List | Glossary On
Versions: 1 2 3 4 5 6 7 8 9 10 11 12 13 14 15 16 17 18 19 20 21 22 23 24 25 26 27
000
ASUS44 KMOB 310712
RWRMOB
REGIONAL WEATHER ROUNDUP
NATIONAL WEATHER SERVICE MOBILE AL
200 AM CDT TUE MAY 31 2016

NOTE: "FAIR" INDICATES FEW OR NO CLOUDS BELOW 12,000 FEET WITH NO
      SIGNIFICANT WEATHER AND/OR OBSTRUCTIONS TO VISIBILITY.

  * THESE STATIONS ARE PART OF THE UNIVERSITY OF SOUTH ALABAMA
    MESONET AND ARE NOT UNDER NWS OR FAA QUALITY CONTROL.

ALZ061>064-310800-
COASTAL ALABAMA

CITY           SKY/WX    TMP DP  RH WIND       PRES   REMARKS
MOBILE REG APT PTCLDY    70  67  90 W3        29.94F
BROOKLEY FIELD PTCLDY    71  68  90 CALM      29.94F
USA CAMPUS*    NOT AVBL
DOG RIVER*     NOT AVBL


CITY           SKY/WX    TMP DP  RH WIND       PRES   REMARKS
MOUNT VERNON*  NOT AVBL
SARALAND*      NOT AVBL
BAY MINETTE*   NOT AVBL
LOXLEY*        NOT AVBL
ROBERTSDALE*   NOT AVBL
FAIRHOPE*      NOT AVBL
ELBERTA*       NOT AVBL
FOLEY*         NOT AVBL
GRAND BAY*     NOT AVBL
DAUPHIN ISLND* NOT AVBL
BON SCOUR NWR* NOT AVBL
GULF SHORES    PTCLDY    71  71 100 CALM      29.92F FOG

$$

ALZ051>060-310800-
INTERIOR SOUTHWEST AND SOUTH CENTRAL ALABAMA

CITY           SKY/WX    TMP DP  RH WIND       PRES   REMARKS
GREENVILLE     CLEAR     71  66  84 CALM      29.92F
EVERGREEN      CLEAR     68  66  93 CALM      29.93F
CASTLEBERRY*   NOT AVBL
ATMORE*        NOT AVBL
DIXIE*         NOT AVBL
ANDALUSIA/OPP  CLEAR     74  67  78 SW3       29.92F
ANDALUSIA*     NOT AVBL
FLORALA APT    CLEAR     69  65  86 CALM      29.94F
FLORALA*       NOT AVBL

$$

FLZ001>006-310800-
WESTERN FLORIDA PANHANDLE

CITY           SKY/WX    TMP DP  RH WIND       PRES   REMARKS
PENSACOLA      CLEAR     77  72  84 W5        29.92F
NAS PENSACOLA  NOT AVBL
MILTON         NOT AVBL
WHTNG S FIELD  CLEAR     71  68  90 CALM      29.92F


CITY           SKY/WX    TMP DP  RH WIND       PRES   REMARKS
WALNUT HILL*   NOT AVBL
JAY*           NOT AVBL
DUKE FIELD     CLEAR     74  70  88 W3        29.91F
CRESTVIEW      CLEAR     68  66  93 CALM      29.94F
VALPARAISO     PTCLDY    73  70  93 CALM      29.91F
DESTIN         CLEAR     80  76  87 CALM      29.91F

$$

MSZ076-079-310800-
INTERIOR SOUTHEAST MISSISSIPPI

CITY           SKY/WX    TMP DP  RH WIND       PRES   REMARKS
LEAKESVILLE*   NOT AVBL
AGRICOLA*      NOT AVBL

$$

MARINE OBSERVATIONS

STATION/POSITION TIME  TEMP    WIND        PRES    WAVE
                       AIR SEA DIR/SP/G            HT/PER
                 (UTC) (F)     (DEG/KT/KT) (MB)    (FT/S)
PASCAGOULA       0600   79     300/  3/  5 1013.3F
PETIT BOIS ISLND 0600   81     260/ 10/ 12 1014.2F
GRAND BAY        0500   76     310/  2     1016.0S
KATRINA CUT      0600   81     280/ 12     1014.2F
CEDAR POINT      0630   80     310/  4     1013.2F
E DAUPHIN ISLAND 0600   81     250/  5/  7 1013.5F
MIDDLE BAY LIGHT 0600   80     270/  4     1013.9F
USCG MOBILE BAY  0600   77 81     CALM     1014.2F
STATE DOCKS      0600   77 82              1013.6F
MEAHER PARK      0600   76      30/  2     1013.2F
WEEKS BAY        0545   75                   N/A
FORT MORGAN      0600   81     280/ 12/ 13 1013.2F
12 S ORANGE BCH  0650   81 82              1012.5F   1/ 3
PENSACOLA BAY    0612      80  290/  2/  3 1013.6F
64 S DAUPHIN ISL 0600   80 80  240/  6/  8 1014.1F

$$

SELECTED LOCATIONS ACROSS THE REGION

CITY           SKY/WX    TMP DP  RH WIND       PRES   REMARKS
NEW ORLEANS    PTCLDY    74  70  87 W3        29.94F
GULFPORT       CLEAR     75  72  90 CALM      29.92F
PASCAGOULA AP  PTCLDY    68  67  96 CALM      29.93F
PASCAGOULA*    NOT AVBL
HATTIESBURG    LGT RAIN  74  70  87 CALM      29.94S
LAUREL         CLOUDY    72  64  78 CALM      29.95F
MERIDIAN       CLOUDY    73  67  81 S3        29.92F
JACKSON        PTCLDY    70  66  87 CALM      29.93F
MONTGOMERY     CLEAR     71  66  84 CALM      29.91S
TROY           PTCLDY    69  66  90 CALM      29.92F
KINSTON*       NOT AVBL
GENEVA*        NOT AVBL
ASHFORD*       NOT AVBL
DOTHAN         CLEAR     72  68  87 W3        29.95F
PANAMA CITY    MOCLDY    71  70  96 CALM      29.90F FOG

$$





USA.gov is the U.S. government's official web portal to all federal, state and local government web resources and services.